FW5285 Myrtle Beach SC US current weather conditions

sailwx.info

Wind from 304

Air temperature 4.4° C
Dewpoint -6.7° C

Last reported at 2020-Jan-20 22:05 UTC.
Time now 2020-Jan-20 23:12 UTC

Location: N 33°39' W 078°57'.
View on Google Maps.

See reports from other nearby stations

  
Tides and Currents Weather Stations Pressure Air Temp Water Temp Dewpoint Dewpoint Depression Visibility Wind Speed Wind Dir Waves Ship Positions
date/time (UTC)wind fromknots sea level pressurealtimeterstation pressurevisibilityair tempwater tempwave heightnotes
2020-Jan-20 22:05 304 4.4
2020-Jan-20 21:55 325 5.0
2020-Jan-20 21:50 332 0 gusting 13 5.0
2020-Jan-20 21:45 348 0 gusting 13 5.0
2020-Jan-20 21:40 321 2 gusting 11 5.0
2020-Jan-20 21:35 350 0 gusting 11 5.0
2020-Jan-20 21:30 309 5.6
2020-Jan-20 21:25 266 5.6
2020-Jan-20 21:20 326 0 gusting 9 5.6
2020-Jan-20 21:15 323 0 gusting 9 5.6
2020-Jan-20 21:10 303 5.6
2020-Jan-20 21:05 342 5.6
2020-Jan-20 21:00 353 6.1
2020-Jan-20 20:55 267 6.1
2020-Jan-20 20:50 297 6.1
2020-Jan-20 20:45 261 6.1
2020-Jan-20 20:40 321 6.1
2020-Jan-20 20:35 278 6.1
2020-Jan-20 20:30 312 0 gusting 7 6.1
2020-Jan-20 20:25 296 0 gusting 9 6.1
2020-Jan-20 20:20 115 6.1
2020-Jan-20 20:15 342 6.1
2020-Jan-20 20:10 343 6.7
2020-Jan-20 20:05 332 6.7
2020-Jan-20 20:00 307 6.7
2020-Jan-20 19:55 269 6.7
2020-Jan-20 19:50 278 6.1
2020-Jan-20 19:45 331 6.7
2020-Jan-20 19:40 284 6.7
2020-Jan-20 19:35 294 5.6
2020-Jan-20 19:30 314 5.6
2020-Jan-20 19:25 359 5.6
2020-Jan-20 19:20 036 6.1
2020-Jan-20 19:15 232 1 gusting 10 6.1
2020-Jan-20 19:10 283 2 gusting 10 6.1
2020-Jan-20 19:05 305 0 gusting 10 6.1
2020-Jan-20 19:00 300 0 gusting 13 6.7
2020-Jan-20 18:55 273 2 gusting 13 6.1
2020-Jan-20 18:50 344 3 gusting 15 6.1
2020-Jan-20 18:45 330 2 gusting 15 6.1
2020-Jan-20 18:40 332 0 gusting 11 6.7
2020-Jan-20 18:35 315 0 gusting 5 6.7
2020-Jan-20 18:30 352 0 gusting 11 6.7
2020-Jan-20 18:25 107 0 gusting 11 6.7
2020-Jan-20 18:20 291 6.7
2020-Jan-20 18:15 288 0 gusting 14 6.1
2020-Jan-20 18:10 339 0 gusting 14 6.7
2020-Jan-20 18:05 305 0 gusting 9 6.7
2020-Jan-20 18:00 013 0 gusting 13 6.1
2020-Jan-20 17:55 006 0 gusting 13 6.7
2020-Jan-20 17:50 270 6.7
2020-Jan-20 17:45 223 6.7
2020-Jan-20 17:40 262 6.1
2020-Jan-20 17:35 357 6.1
2020-Jan-20 17:30 311 0 gusting 10 6.1
2020-Jan-20 17:25 327 2 gusting 13 5.6
2020-Jan-20 17:20 265 0 gusting 13 6.1
2020-Jan-20 17:15 347 2 gusting 10 6.1
2020-Jan-20 17:10 335 3 gusting 10 6.7
2020-Jan-20 17:05 312 1 gusting 10 6.1
2020-Jan-20 17:00 046 1 gusting 13 6.1
2020-Jan-20 16:55 348 0 gusting 13 6.1
2020-Jan-20 16:50 005 0 gusting 11 5.6
2020-Jan-20 16:45 001 0 gusting 11 5.6
2020-Jan-20 16:40 107 0 gusting 13 5.0
2020-Jan-20 16:35 263 2 gusting 13 5.6
2020-Jan-20 16:30 348 0 gusting 9 5.6
2020-Jan-20 16:25 293 4.4
2020-Jan-20 16:20 007 0 gusting 13 5.0
2020-Jan-20 16:15 278 0 gusting 13 4.4
2020-Jan-20 16:10 326 0 gusting 11 4.4
2020-Jan-20 16:05 317 2 gusting 20 4.4
2020-Jan-20 16:00 278 0 gusting 20 3.9
2020-Jan-20 15:55 275 0 gusting 10 4.4
2020-Jan-20 15:50 324 2 gusting 11 4.4
2020-Jan-20 15:45 328 0 gusting 11 4.4
2020-Jan-20 15:40 303 0 gusting 14 4.4
2020-Jan-20 15:35 354 0 gusting 14 4.4
2020-Jan-20 15:30 312 0 gusting 11 4.4
2020-Jan-20 15:25 351 0 gusting 10 3.9
2020-Jan-20 15:20 325 0 gusting 13 3.9
2020-Jan-20 15:15 003 2 gusting 14 3.3
2020-Jan-20 15:10 314 3 gusting 14 3.3
2020-Jan-20 15:05 011 3 gusting 18 3.3
2020-Jan-20 15:00 051 3 gusting 19 3.3
2020-Jan-20 14:55 298 6 gusting 19 2.8
2020-Jan-20 14:50 002 6 gusting 18 2.8
2020-Jan-20 14:44 089 2 gusting 18 2.8
2020-Jan-20 14:39 327 2.8
2020-Jan-20 14:34 351 2 gusting 11 2.2
2020-Jan-20 14:29 340 3 gusting 14 2.2
2020-Jan-20 14:24 051 3 gusting 16 2.2
2020-Jan-20 14:19 313 5 gusting 18 1.7
2020-Jan-20 14:14 358 5 gusting 20 1.7
2020-Jan-20 14:09 326 3 gusting 20 1.7
2020-Jan-20 14:04 325 3 gusting 16 1.7
2020-Jan-20 13:59 297 3 gusting 18 1.7
2020-Jan-20 13:54 280 5 gusting 18 1.1
2020-Jan-20 13:49 010 5 gusting 16 1.1
2020-Jan-20 13:44 340 3 gusting 13 1.1
2020-Jan-20 13:39 307 3 gusting 10 1.1
2020-Jan-20 13:34 312 2 gusting 11 1.1
2020-Jan-20 13:29 324 2 gusting 11 1.1
2020-Jan-20 13:24 340 2 gusting 14 0.6
2020-Jan-20 13:19 267 0 gusting 14 0.6
2020-Jan-20 13:14 323 2 gusting 13 0.6
2020-Jan-20 13:09 348 3 gusting 13 0.6
2020-Jan-20 13:04 314 2 gusting 13 0.6
2020-Jan-20 12:59 306 2 gusting 13 0.6
2020-Jan-20 12:54 306 1 gusting 13 -0.0
2020-Jan-20 12:49 351 2 gusting 11 -0.0
2020-Jan-20 12:44 311 2 gusting 11 -0.0
2020-Jan-20 12:39 323 1 gusting 11 -0.0
2020-Jan-20 12:34 332 2 gusting 13 -0.0
2020-Jan-20 12:29 294 2 gusting 13 -0.0
2020-Jan-20 12:24 335 3 gusting 13 -0.0
2020-Jan-20 12:19 051 3 gusting 13 -0.0
2020-Jan-20 12:14 327 2 gusting 10 -0.0
2020-Jan-20 12:09 295 2 gusting 13 -0.0
2020-Jan-20 12:04 076 2 gusting 13 -0.0
2020-Jan-20 11:59 300 0 gusting 10 -0.0
2020-Jan-20 11:54 288 2 gusting 10 0.6
2020-Jan-20 11:49 286 3 gusting 14 0.6
2020-Jan-20 11:44 345 3 gusting 14 0.6
2020-Jan-20 11:39 288 3 gusting 13 0.6
2020-Jan-20 11:34 333 3 gusting 13 0.6
2020-Jan-20 11:29 352 3 gusting 14 0.6
2020-Jan-20 11:24 299 3 gusting 11 0.6
2020-Jan-20 11:19 005 3 gusting 11 0.6
2020-Jan-20 11:14 326 3 gusting 13 0.6
2020-Jan-20 11:09 300 2 gusting 13 0.6
2020-Jan-20 11:04 333 2 gusting 11 0.6
2020-Jan-20 10:59 331 3 gusting 11 0.6
2020-Jan-20 10:54 328 3 gusting 11 0.6
2020-Jan-20 10:49 294 3 gusting 11 0.6
2020-Jan-20 10:44 250 3 gusting 11 0.6
2020-Jan-20 10:39 311 3 gusting 11 1.1
2020-Jan-20 10:34 330 2 gusting 11 1.1
2020-Jan-20 10:29 335 3 gusting 11 1.1
2020-Jan-20 10:24 320 3 gusting 15 1.1
2020-Jan-20 10:19 344 3 gusting 15 1.1
2020-Jan-20 10:14 311 3 gusting 11 1.1
2020-Jan-20 10:09 317 3 gusting 11 1.1
2020-Jan-20 10:04 003 2 gusting 11 1.1
2020-Jan-20 09:59 303 3 gusting 18 1.7
2020-Jan-20 09:54 309 2 gusting 18 1.7
2020-Jan-20 09:49 249 1 gusting 11 1.7
2020-Jan-20 09:44 295 2 gusting 15 1.7
2020-Jan-20 09:39 323 2 gusting 15 1.7
2020-Jan-20 09:34 320 3 gusting 10 1.7
2020-Jan-20 09:28 260 5 gusting 16 1.7
2020-Jan-20 09:24 315 5 gusting 16 1.7
2020-Jan-20 09:19 323 3 gusting 16 2.2
2020-Jan-20 09:14 347 2 gusting 14 2.2
2020-Jan-20 09:08 086 5 gusting 15 2.2
2020-Jan-20 09:04 2.2
2020-Jan-20 08:58 357 3 gusting 15 2.2
2020-Jan-20 08:53 344 6 gusting 23 2.2
2020-Jan-20 08:48 340 3 gusting 23 2.2
2020-Jan-20 08:43 093 2 gusting 9 2.8
2020-Jan-20 08:38 249 3 gusting 15 2.8
2020-Jan-20 08:33 270 3 gusting 15 2.8
2020-Jan-20 08:28 357 3 gusting 14 2.8
2020-Jan-20 08:23 313 3 gusting 14 2.8
2020-Jan-20 08:18 334 3 gusting 11 2.8
2020-Jan-20 08:13 340 3 gusting 11 2.8
2020-Jan-20 08:08 286 3 gusting 18 3.3
2020-Jan-20 08:03 345 5 gusting 18 3.3
2020-Jan-20 07:58 342 3 gusting 13 3.3
2020-Jan-20 07:53 030 3 gusting 13 3.3
2020-Jan-20 07:48 303 2 gusting 11 3.3
2020-Jan-20 07:43 329 5 gusting 16 3.3
2020-Jan-20 07:38 313 6 gusting 16 3.3
2020-Jan-20 07:33 141 5 gusting 18 3.9
2020-Jan-20 07:28 320 3 gusting 18 3.9
2020-Jan-20 07:23 051 5 gusting 13 3.9
2020-Jan-20 07:18 005 3 gusting 14 4.4
2020-Jan-20 07:13 315 3 gusting 14 4.4
2020-Jan-20 07:08 311 3 gusting 16 4.4
2020-Jan-20 07:03 307 3 gusting 18 4.4
2020-Jan-20 06:58 335 2 gusting 18 4.4
2020-Jan-20 06:53 334 0 gusting 9 5.0
2020-Jan-20 06:48 327 3 gusting 13 5.0
2020-Jan-20 06:43 298 3 gusting 13 5.0
2020-Jan-20 06:38 289 5 gusting 13 5.0
2020-Jan-20 06:33 329 2 gusting 18 5.6
2020-Jan-20 06:28 323 1 gusting 18 5.6
2020-Jan-20 06:23 325 3 gusting 16 5.6
2020-Jan-20 06:18 323 3 gusting 19 5.6
2020-Jan-20 06:13 344 3 gusting 19 5.6
2020-Jan-20 06:08 320 2 gusting 16 6.1
2020-Jan-20 06:03 312 2 gusting 16 6.1
2020-Jan-20 05:58 017 2 gusting 14 6.1
2020-Jan-20 05:53 252 0 gusting 11 6.1
2020-Jan-20 05:48 003 0 gusting 5 6.7
2020-Jan-20 05:43 306 2 gusting 13 6.7
2020-Jan-20 05:38 311 2 gusting 13 6.7
2020-Jan-20 05:33 010 0 gusting 18 6.7
2020-Jan-20 05:28 340 6.7
2020-Jan-20 05:23 6.7
2020-Jan-20 05:18 315 0 gusting 11 7.2
2020-Jan-20 05:13 341 0 gusting 11 7.2
2020-Jan-20 05:08 294 3 gusting 16 7.2
2020-Jan-20 05:03 337 3 gusting 16 7.2
2020-Jan-20 04:58 070 0 gusting 11 7.2
2020-Jan-20 04:53 092 0 gusting 11 7.8
2020-Jan-20 04:48 021 2 gusting 14 7.8
2020-Jan-20 04:43 284 2 gusting 14 7.8
2020-Jan-20 04:38 328 0 gusting 13 7.8
2020-Jan-20 04:33 338 0 gusting 10 7.8
2020-Jan-20 04:28 246 1 gusting 11 8.3
2020-Jan-20 04:23 269 1 gusting 11 8.3
2020-Jan-20 04:18 319 0 gusting 11 8.3
2020-Jan-20 04:13 323 0 gusting 16 8.3
2020-Jan-20 04:08 352 0 gusting 16 8.3
2020-Jan-20 04:03 328 8.3
2020-Jan-20 03:58 311 8.9
2020-Jan-20 03:53 097 8.9
2020-Jan-20 03:48 342 0 gusting 14 8.9
2020-Jan-20 03:43 329 0 gusting 13 8.9
2020-Jan-20 03:38 341 8.9
2020-Jan-20 03:33 357 8.9
2020-Jan-20 03:28 355 8.3
2020-Jan-20 03:22 340 8.3
2020-Jan-20 03:17 346 8.3
2020-Jan-20 03:12 300 8.3
2020-Jan-20 03:08 276 8.3
2020-Jan-20 02:57 325 8.3
2020-Jan-20 02:52 325 8.9
2020-Jan-20 02:47 274 8.9
2020-Jan-20 02:42 274 8.9
2020-Jan-20 02:37 274 9.4
2020-Jan-20 02:32 274 9.4
2020-Jan-20 02:27 274 9.4
2020-Jan-20 02:22 275 10.0
2020-Jan-20 02:17 275 10.0
2020-Jan-20 02:12 286 10.0
2020-Jan-20 02:07 286 10.6
2020-Jan-20 02:02 286 10.6
2020-Jan-20 01:57 286 10.6
2020-Jan-20 01:52 286 10.6
2020-Jan-20 01:47 286 11.1
2020-Jan-20 01:42 286 11.1
2020-Jan-20 01:37 313 11.1
2020-Jan-20 01:32 317 11.1
2020-Jan-20 01:27 061 11.1
2020-Jan-20 01:22 286 11.7
2020-Jan-20 01:17 330 11.7
2020-Jan-20 01:12 316 11.7
2020-Jan-20 01:07 321 11.7
2020-Jan-20 01:02 293 11.7
2020-Jan-20 00:57 300 11.7
2020-Jan-20 00:52 281 11.7
2020-Jan-20 00:47 311 11.7
2020-Jan-20 00:37 288 11.7
2020-Jan-20 00:32 300 11.7
2020-Jan-20 00:27 264 11.7
2020-Jan-20 00:22 287 11.7
2020-Jan-20 00:17 288 11.7
2020-Jan-20 00:12 288 12.2
2020-Jan-20 00:07 288 12.2
2020-Jan-20 00:02 288 12.2
2020-Jan-19 23:57 288 12.2
2020-Jan-19 23:52 288 12.8
2020-Jan-19 23:47 290 12.8
2020-Jan-19 23:42 294 12.8
2020-Jan-19 23:37 294 12.8
2020-Jan-19 23:32 297 12.8
2020-Jan-19 23:27 314 13.3
2020-Jan-19 23:22 294 13.3
2020-Jan-19 23:17 282 13.3
2020-Jan-19 23:12 288 13.3
2020-Jan-19 23:07 283 13.3
2020-Jan-19 23:02 280 13.3
2020-Jan-19 22:57 278 13.3
2020-Jan-19 22:52 290 13.3
2020-Jan-19 22:47 280 13.9
2020-Jan-19 22:42 320 13.9
2020-Jan-19 22:37 294 13.9
2020-Jan-19 22:32 279 13.9
2020-Jan-19 22:27 278 13.9
2020-Jan-19 22:22 323 14.4
2020-Jan-19 22:17 270 14.4
2020-Jan-19 22:12 314 14.4
2020-Jan-19 22:07 282 14.4
2020-Jan-19 22:02 334 14.4
2020-Jan-19 21:57 298 0 gusting 14 14.4
2020-Jan-19 21:52 231 0 gusting 14 15.0
2020-Jan-19 21:47 286 15.0
2020-Jan-19 21:42 271 15.0
2020-Jan-19 21:37 323 15.0
2020-Jan-19 21:32 296 0 gusting 10 15.0
2020-Jan-19 21:27 290 15.0
2020-Jan-19 21:22 325 15.0
2020-Jan-19 21:17 313 15.0
2020-Jan-19 21:12 287 15.6
2020-Jan-19 21:07 282 15.6
2020-Jan-19 21:02 303 15.6
2020-Jan-19 20:57 291 15.6
2020-Jan-19 20:51 286 15.6
2020-Jan-19 20:46 290 15.6
2020-Jan-19 20:41 280 15.6
2020-Jan-19 20:36 293 15.6
2020-Jan-19 20:31 309 0 gusting 9 15.6
2020-Jan-19 20:26 339 0 gusting 9 15.6
2020-Jan-19 20:21 255 0 gusting 11 15.6
2020-Jan-19 20:16 298 2 gusting 14 16.1
2020-Jan-19 20:11 033 0 gusting 14 16.1
2020-Jan-19 20:06 308 0 gusting 9 16.1
2020-Jan-19 20:01 320 0 gusting 9 16.1
2020-Jan-19 19:56 278 0 gusting 15 16.1
2020-Jan-19 19:51 302 0 gusting 15 16.1
2020-Jan-19 19:46 286 0 gusting 3 16.1
2020-Jan-19 19:41 209 16.1
2020-Jan-19 19:36 008 16.7
2020-Jan-19 19:31 309 16.7
2020-Jan-19 19:26 311 16.7
2020-Jan-19 19:21 250 16.7
2020-Jan-19 19:16 134 17.2
2020-Jan-19 19:11 213 17.2
2020-Jan-19 19:06 255 17.2
2020-Jan-19 19:01 339 0 gusting 9 17.2
2020-Jan-19 18:56 333 2 gusting 9 17.2
2020-Jan-19 18:51 334 2 gusting 9 17.2
2020-Jan-19 18:46 315 2 gusting 10 17.2
2020-Jan-19 18:41 001 0 gusting 10 17.2
2020-Jan-19 18:36 290 17.2
2020-Jan-19 18:31 082 0 gusting 5 17.2
2020-Jan-19 18:26 072 0 gusting 13 17.2
2020-Jan-19 18:21 007 0 gusting 13 17.2
2020-Jan-19 18:16 205 17.2
2020-Jan-19 18:11 351 17.2
2020-Jan-19 18:06 247 17.2
2020-Jan-19 18:01 013 0 gusting 10 16.7
2020-Jan-19 17:56 097 0 gusting 10 16.1
2020-Jan-19 17:51 003 0 gusting 6 16.1
2020-Jan-19 17:46 265 16.1
2020-Jan-19 17:41 046 0 gusting 10 15.6
2020-Jan-19 17:36 124 2 gusting 10 15.6
2020-Jan-19 17:31 290 0 gusting 11 15.6
2020-Jan-19 17:26 041 0 gusting 11 15.6
2020-Jan-19 17:21 307 0 gusting 13 15.6
2020-Jan-19 17:16 239 2 gusting 13 15.6
2020-Jan-19 17:11 306 0 gusting 15 15.6
2020-Jan-19 17:06 311 0 gusting 15 15.6
2020-Jan-19 17:01 239 15.6
2020-Jan-19 16:56 289 15.6
2020-Jan-19 16:51 297 0 gusting 9 15.6
2020-Jan-19 16:46 240 15.6
2020-Jan-19 16:41 321 15.6
2020-Jan-19 16:36 320 15.6
2020-Jan-19 16:31 134 15.6
2020-Jan-19 16:26 314 0 gusting 9 16.1
2020-Jan-19 16:21 213 0 gusting 9 16.1
2020-Jan-19 16:16 271 16.1
2020-Jan-19 16:11 028 16.7
2020-Jan-19 16:06 278 0 16.7
2020-Jan-19 16:01 087 2 gusting 15 17.2
2020-Jan-19 15:51 315 17.8
2020-Jan-19 15:46 303 0 gusting 14 17.8
2020-Jan-19 15:41 256 0 gusting 9 17.8
2020-Jan-19 15:36 097 0 gusting 10 17.8
2020-Jan-19 15:31 255 17.8
2020-Jan-19 15:26 112 17.8
2020-Jan-19 15:21 034 18.3
2020-Jan-19 15:16 026 0 gusting 13 18.3
2020-Jan-19 15:11 155 0 gusting 13 18.3
2020-Jan-19 15:06 319 0 gusting 10 18.3
2020-Jan-19 15:01 143 0 gusting 7 18.3
2020-Jan-19 14:56 292 0 gusting 9 18.3
2020-Jan-19 14:51 309 0 gusting 9 18.3
2020-Jan-19 14:46 157 0 gusting 9 18.3
2020-Jan-19 14:41 340 0 gusting 9 18.3
2020-Jan-19 14:36 007 0 gusting 7 18.3
2020-Jan-19 14:31 102 0 gusting 5 18.3
2020-Jan-19 14:26 206 2 gusting 13 18.3
2020-Jan-19 14:21 068 2 gusting 13 18.3
2020-Jan-19 14:16 327 0 gusting 9 18.3
2020-Jan-19 14:11 192 18.3
2020-Jan-19 14:06 307 18.3
2020-Jan-19 14:01 163 18.3
2020-Jan-19 13:56 217 0 gusting 13 18.3
2020-Jan-19 13:51 336 0 gusting 13 18.3
2020-Jan-19 13:46 250 0 gusting 5 18.3
2020-Jan-19 13:41 103 0 gusting 5 18.3
2020-Jan-19 13:36 070 18.3
2020-Jan-19 13:31 265 18.3
2020-Jan-19 13:26 139 18.3
2020-Jan-19 13:21 135 18.3
2020-Jan-19 13:16 101 18.3
2020-Jan-19 13:10 172 0 gusting 7 18.3
2020-Jan-19 13:05 158 0 gusting 10 18.3
2020-Jan-19 13:00 213 0 gusting 10 18.3
2020-Jan-19 12:55 184 0 gusting 6 18.3
2020-Jan-19 12:50 077 0 gusting 9 17.8
2020-Jan-19 12:45 205 17.8
2020-Jan-19 12:40 221 17.8
2020-Jan-19 12:35 339 0 gusting 3 17.8
2020-Jan-19 12:30 114 0 gusting 5 17.8
2020-Jan-19 12:25 233 0 gusting 5 17.8
2020-Jan-19 12:20 330 0 gusting 10 17.8
2020-Jan-19 12:15 264 17.8
2020-Jan-19 12:10 293 17.8
2020-Jan-19 12:05 171 17.8
2020-Jan-19 12:00 327 17.8
2020-Jan-19 11:55 251 17.8
2020-Jan-19 11:50 273 17.8
2020-Jan-19 11:45 318 17.8
2020-Jan-19 11:40 320 0 gusting 5 17.8
2020-Jan-19 11:35 257 0 gusting 7 17.8
2020-Jan-19 11:30 203 0 gusting 7 17.8
2020-Jan-19 11:25 215 0 gusting 5 17.8
2020-Jan-19 11:20 184 17.8
2020-Jan-19 11:15 159 17.8
2020-Jan-19 11:10 170 17.8
2020-Jan-19 11:05 151 17.8
2020-Jan-19 11:00 189 0 gusting 3 17.8
2020-Jan-19 10:55 301 17.8
2020-Jan-19 10:50 244 17.8
2020-Jan-19 10:45 155 17.8
2020-Jan-19 10:40 334 17.8
2020-Jan-19 10:35 152 17.8
2020-Jan-19 10:30 306 17.8
2020-Jan-19 10:25 309 17.8
2020-Jan-19 10:20 079 17.8
2020-Jan-19 10:15 230 0 gusting 9 18.3
2020-Jan-19 10:10 218 0 gusting 9 18.3
2020-Jan-19 10:05 218 18.3
2020-Jan-19 10:00 204 0 gusting 9 18.3
2020-Jan-19 09:55 303 0 gusting 9 18.3
2020-Jan-19 09:50 224 0 gusting 5 18.3
2020-Jan-19 09:45 186 0 gusting 6 18.3
2020-Jan-19 09:40 280 0 gusting 6 18.3
2020-Jan-19 09:35 298 18.3
2020-Jan-19 09:30 102 18.3
2020-Jan-19 09:25 167 0 gusting 9 18.3
2020-Jan-19 09:20 212 0 gusting 10 18.3
2020-Jan-19 09:15 282 0 gusting 10 18.3
2020-Jan-19 09:10 277 0 gusting 10 18.3
2020-Jan-19 09:05 051 0 gusting 9 18.3
2020-Jan-19 09:00 120 0 gusting 9 18.3
2020-Jan-19 08:55 151 0 gusting 10 18.3
2020-Jan-19 08:50 167 18.3
2020-Jan-19 08:45 331 18.3
2020-Jan-19 08:40 128 0 gusting 10 18.3
2020-Jan-19 08:35 150 2 gusting 10 18.3
2020-Jan-19 08:30 164 2 gusting 9 18.9
2020-Jan-19 08:25 021 2 gusting 19 18.9
2020-Jan-19 08:20 260 2 gusting 19 18.9
2020-Jan-19 08:15 046 0 gusting 11 18.9
2020-Jan-19 08:10 264 2 gusting 11 18.9
2020-Jan-19 08:05 008 2 gusting 20 18.9
2020-Jan-19 07:59 060 2 gusting 20 18.9
2020-Jan-19 07:54 313 2 gusting 10 18.9
2020-Jan-19 07:49 320 2 gusting 16 18.9
2020-Jan-19 07:44 315 2 gusting 16 19.4
2020-Jan-19 07:39 245 2 gusting 14 19.4
2020-Jan-19 07:34 194 0 gusting 13 19.4
2020-Jan-19 07:29 152 0 gusting 13 19.4
2020-Jan-19 07:24 300 0 gusting 7 19.4
2020-Jan-19 07:19 302 0 gusting 15 19.4
2020-Jan-19 07:14 314 0 gusting 15 19.4
2020-Jan-19 07:09 092 0 gusting 11 19.4
2020-Jan-19 07:04 149 0 gusting 11 19.4
2020-Jan-19 06:59 108 19.4
2020-Jan-19 06:54 188 19.4
2020-Jan-19 06:49 172 0 gusting 6 19.4
2020-Jan-19 06:44 294 0 gusting 11 19.4
2020-Jan-19 06:39 151 0 gusting 11 19.4
2020-Jan-19 06:34 358 0 gusting 14 19.4
2020-Jan-19 06:29 117 0 gusting 14 19.4
2020-Jan-19 06:24 288 0 gusting 11 19.4
2020-Jan-19 06:19 169 0 gusting 10 19.4
2020-Jan-19 06:14 302 0 gusting 11 18.9
2020-Jan-19 06:09 099 0 gusting 11 18.9
2020-Jan-19 06:04 249 18.9
2020-Jan-19 05:59 253 0 gusting 10 18.9
2020-Jan-19 05:54 154 0 gusting 10 18.9
2020-Jan-19 05:49 105 0 gusting 6 18.9
2020-Jan-19 05:44 221 0 gusting 7 18.9
2020-Jan-19 05:39 196 0 gusting 7 18.9
2020-Jan-19 05:34 303 0 gusting 10 18.3
2020-Jan-19 05:29 172 0 gusting 10 18.3
2020-Jan-19 05:24 275 0 gusting 10 18.3
2020-Jan-19 05:19 180 18.3
2020-Jan-19 05:14 182 0 gusting 10 18.3
2020-Jan-19 05:09 183 0 gusting 10 18.3
2020-Jan-19 05:04 195 0 gusting 6 18.3
2020-Jan-19 04:59 342 18.3
2020-Jan-19 04:54 321 0 gusting 9 18.3
2020-Jan-19 04:49 120 18.3
2020-Jan-19 04:44 182 18.3
2020-Jan-19 04:39 063 18.3
2020-Jan-19 04:34 321 18.3
2020-Jan-19 04:29 001 0 gusting 11 18.3
2020-Jan-19 04:24 323 0 gusting 11 18.3
2020-Jan-19 04:19 244 0 gusting 10 18.3
2020-Jan-19 04:14 110 18.3
2020-Jan-19 04:09 213 18.3
2020-Jan-19 04:04 298 0 gusting 3 18.3
2020-Jan-19 03:58 163 0 gusting 13 17.8
2020-Jan-19 03:53 206 0 gusting 13 17.8
2020-Jan-19 03:48 244 17.8
2020-Jan-19 03:43 167 17.2
2020-Jan-19 03:38 141 17.2
2020-Jan-19 03:33 051 17.2
2020-Jan-19 03:28 294 16.7
2020-Jan-19 03:23 198 16.7
2020-Jan-19 03:18 215 16.7
2020-Jan-19 03:13 193 16.7
2020-Jan-19 03:08 297 0 gusting 5 16.7
2020-Jan-19 03:03 163 16.7
2020-Jan-19 02:58 159 16.7
2020-Jan-19 02:53 181 16.7
2020-Jan-19 02:48 185 0 gusting 5 16.7
2020-Jan-19 02:43 149 16.7
2020-Jan-19 02:38 174 16.1
2020-Jan-19 02:33 346 16.1
2020-Jan-19 02:28 015 16.1
2020-Jan-19 02:23 015 15.6
2020-Jan-19 02:18 172 0 gusting 6 16.1
2020-Jan-19 02:13 177 16.1
2020-Jan-19 02:08 343 16.1
2020-Jan-19 02:03 181 16.1
2020-Jan-19 01:58 150 16.1
2020-Jan-19 01:53 185 16.7
2020-Jan-19 01:48 174 16.7
2020-Jan-19 01:43 192 16.7
2020-Jan-19 01:38 180 16.7
2020-Jan-19 01:33 234 16.1
2020-Jan-19 01:28 194 16.1
2020-Jan-19 01:23 159 16.1
2020-Jan-19 01:18 189 16.1
2020-Jan-19 01:13 142 16.1
2020-Jan-19 01:08 179 16.1
2020-Jan-19 01:03 169 16.1
2020-Jan-19 00:58 139 15.6
2020-Jan-19 00:53 141 15.6
2020-Jan-19 00:48 182 15.6
2020-Jan-19 00:43 188 0 gusting 6 16.1
2020-Jan-19 00:38 161 0 gusting 6 16.1
2020-Jan-19 00:33 305 16.1
2020-Jan-19 00:28 174 0 gusting 7 16.1
2020-Jan-19 00:23 182 0 gusting 7 16.1
2020-Jan-19 00:18 181 0 gusting 10 16.1
2020-Jan-19 00:13 183 16.1
2020-Jan-19 00:08 228 16.1
2020-Jan-19 00:03 158 16.1
2020-Jan-18 23:58 215 16.1
2020-Jan-18 23:53 175 0 gusting 11 16.1
2020-Jan-18 23:48 174 0 gusting 11 15.6
2020-Jan-18 23:43 189 0 gusting 7 15.6
2020-Jan-18 23:38 186 0 gusting 3 15.6
2020-Jan-18 23:33 190 0 gusting 7 15.6
2020-Jan-18 23:28 212 15.6
2020-Jan-18 23:23 144 15.6
2020-Jan-18 23:18 097 15.6
2020-Jan-18 23:13 300 0 gusting 5 15.0
2020-Jan-18 23:08 279 0 gusting 5 15.0
2020-Jan-18 23:03 232 15.0